Regional Weather Roundup
Issued by NWS Newport/Morehead, NC

Current Version | Previous Version | Text Only | Print | Product List | Glossary Off
Versions: 1 2 3 4 5 6 7 8 9 10 11 12 13 14 15 16 17 18 19 20 21 22 23 24 25 26 27 28 29 30 31 32 33 34 35 36 37 38 39 40 41 42 43 44 45 46 47 48 49 50
000 ASUS42 KMHX 281613 RWRMHX WEATHER ROUNDUP FOR EASTERN NORTH CAROLINA NATIONAL WEATHER SERVICE NEWPORT/MOREHEAD CITY NC 1200 PM EDT TUE JUL 28 2015 NOTE: "FAIR" INDICATES FEW OR NO CLOUDS BELOW 12,000 FEET WITH NO SIGNIFICANT WEATHER AND/OR OBSTRUCTIONS TO VISIBILITY NCZ015>017-031-032-045>047-102-103-281700- NORTH COAST CITY SKY/WX TMP DP RH WIND PRES REMARKS EDENTON N/A 84 71 64 S6 30.05S ELIZABETH CITY MOSUNNY 85 69 58 SE7 30.05R KITTY HAWK SUNNY 88 68 51 E6 30.04S MANTEO MOSUNNY 83 69 62 S10 30.05S $$ NCZ045>047-081-094-103-104-281700- CENTRAL COAST CITY SKY/WX TMP DP RH WIND PRES REMARKS FRISCO SUNNY 87 70 56 SE8 30.04S SWANQUARTER N/A 86 N/A N/A SE10 30.00S $$ NCZ095-097-098-100-101-281700- SOUTHERN COAST CITY SKY/WX TMP DP RH WIND PRES REMARKS BEAUFORT MOSUNNY 84 72 67 E12 30.03S CEDAR ISLAND N/A 84 N/A N/A E12 30.09S JACKSONVILLE MOSUNNY 85 69 58 SE10 30.03R PINEY ISLAND SUNNY N/A N/A N/A E10 30.03S WILMINGTON MOSUNNY 85 71 63 E9 30.02S $$ NCZ011>013-027>030-043-044-078>080-089-090>093-098-281700- COASTAL PLAIN CITY SKY/WX TMP DP RH WIND PRES REMARKS AHOSKIE MOSUNNY 82 71 67 S3 30.04S CLINTON SUNNY 87 72 59 E7 30.03S ELIZABETHTOWN SUNNY 86 69 57 E5 30.02S GOLDSBORO MOSUNNY 87 71 60 VRB5 30.02R GREENVILLE PTSUNNY 86 72 62 SE8 30.06S HAVELOCK PTSUNNY 86 71 60 SE13 30.04R KENANSVILLE SUNNY 85 67 54 CALM 30.05R KINSTON MOSUNNY 86 70 58 MISG 30.05R NEW BERN MOSUNNY 85 70 60 SE7 30.04S RICHLANDS MOSUNNY 88 66 48 E8 30.03S ROCKY MOUNT PTSUNNY 88 70 55 VRB7 30.04S WASHINGTON MOSUNNY 84 71 65 E7 30.04S WHITEVILLE MOSUNNY 85 70 59 E12 30.02S $$ AMZ130-135-150-152-154-156-158-170-250-252-270-ANZ085-086-088-633-658-670-281700- MARINE OBSERVATIONS STATION/POSITION TIME TEMP WIND PRES WAVE SWELL AIR SEA DIR/SP/G HT/PER HT/PER (UTC) (F) (DEG/KT/KT) (MB) (FT/S) (FT/S) CHESAPEAKE LIGHT 1600 79 170/ 10/ 11 1017.8 64 E VA BEACH 1550 80 81 190/ 6/ 6 1017.3 2/11 2/11 DUCK 1500 81 71 140/ 9/ 10 1016.3 2 E DUCK 1511 80 N/A 2/11 OREGON INLET 1500 81 82 90/ 5/ 7 1017.3 13E OREGON INLT 1600 80 N/A 2/11 2/11 HATTERAS CG 1500 82 81 110/ 6/ 8 1017.0 DIAMOND BUOY NOT AVBL CAPE LOOKOUT 1600 81 90/ 11/ 12 1016.5 BEAUFORT LAB 1500 82 81 90/ 11/ 15 1016.2 30 SE NEW RVR IN NOT AVBL 27 SE WRIGHTSVLE 1500 79 81 100/ 14/ 16 N/A 5 SE WRIGHTSVLE NOT AVBL 225 S CAPE HAT 1550 77 82 220/ 19/ 21 1015.5 7/ 7 2/11 41 SE CHARLESTON 1550 84 84 60/ 16/ 17 1014.7 3/ 7 2/ 7 $$

USA.gov is the U.S. government's official web portal to all federal, state and local government web resources and services.